Total_Precipitation_Accumulation
1.26 1.13 1.79 1.73 1.51 1.32 1.22 1.21 1.22 1.30 1.38 1.35 1.22 1.02 0.87 0.82 0.82 0.88 0.95 0.87 0.81 0.79 0.81 0.84 0.81 0.79 0.71 0.65 0.72 0.85 0.99 1.03 0.95 0.91 1.01 1.11 1.14 1.21 1.45 1.67 1.76 1.83 1.75
0.90 1.01 1.63 1.58 1.41 1.25 1.19 1.22 1.21 1.18 1.17 1.18 1.19 1.07 0.95 0.80 0.77 0.81 0.81 0.81 0.76 0.77 0.76 0.75 0.81 0.81 0.73 0.73 0.82 0.95 1.00 1.03 0.95 0.97 1.22 1.32 1.32 1.36 1.43 1.56 1.73 1.85 1.79
0.85 0.91 1.25 1.49 1.42 1.29 1.20 1.17 1.16 1.13 1.11 1.12 1.10 1.12 1.00 0.87 0.75 0.77 0.75 0.72 0.74 0.74 0.74 0.72 0.76 0.77 0.76 0.81 0.95 1.03 0.97 1.02 1.11 1.23 1.60 1.92 1.56 1.39 1.35 1.50 1.54 1.59 1.65
0.76 0.86 1.17 1.55 1.48 1.39 1.34 1.33 1.29 1.17 1.07 1.06 1.00 0.97 0.93 0.89 0.81 0.81 0.86 0.75 0.75 0.73 0.72 0.68 0.69 0.75 0.77 0.86 0.99 0.98 0.96 1.10 1.27 1.39 1.62 1.84 1.78 1.56 1.55 1.67 1.66 1.58 1.67
0.78 0.85 1.29 1.68 1.52 1.43 1.40 1.49 1.41 1.26 1.12 1.02 0.94 0.93 0.90 0.93 0.92 0.96 0.90 0.83 0.81 0.79 0.76 0.81 0.81 0.86 0.89 0.96 0.96 0.97 1.11 1.26 1.37 1.32 1.45 1.65 2.09 1.95 1.68 1.81 1.85 1.71 1.63
0.68 0.74 1.14 1.64 1.51 1.37 1.32 1.44 1.36 1.21 1.19 1.10 1.03 1.01 1.01 1.08 1.18 1.07 1.00 0.97 0.89 0.88 0.83 0.88 0.92 0.98 1.01 1.02 1.04 1.12 1.27 1.39 1.30 1.40 1.49 1.63 1.96 1.98 1.62 1.66 1.67 1.63 1.54
0.68 0.70 0.96 1.43 1.42 1.27 1.22 1.30 1.28 1.22 1.23 1.11 1.05 1.06 1.08 1.12 1.27 1.34 1.22 1.11 1.05 1.02 0.97 0.95 0.94 0.93 0.97 1.07 1.10 1.17 1.33 1.32 1.21 1.48 1.51 1.71 1.79 1.79 1.49 1.45 1.51 1.59 1.71
0.78 0.68 0.81 1.23 1.29 1.20 1.22 1.25 1.24 1.19 1.11 0.98 0.99 1.04 1.06 1.07 1.19 1.34 1.30 1.22 1.19 1.12 1.11 1.09 1.07 1.02 1.01 1.03 1.14 1.22 1.30 1.16 0.91 1.20 1.45 1.72 2.00 1.88 1.47 1.38 1.47 1.58 1.82
1.13 0.95 0.89 0.96 1.00 1.10 1.20 1.22 1.33 1.35 1.14 0.97 0.92 0.93 0.93 0.95 1.01 1.11 1.16 1.15 1.13 1.14 1.14 1.13 1.11 1.09 1.12 1.08 1.10 1.18 1.20 1.12 1.02 1.15 1.14 1.66 2.06 1.93 1.61 1.47 1.40 1.48 1.70
1.15 1.11 1.04 1.04 0.99 0.99 1.06 1.25 1.47 1.57 1.37 1.09 0.96 0.89 0.92 0.89 0.90 1.02 1.04 1.13 1.17 1.21 1.25 1.26 1.22 1.15 1.22 1.22 1.21 1.21 1.17 1.00 0.89 0.96 1.17 1.60 2.12 1.98 1.73 1.48 1.28 1.22 1.43
1.06 1.07 1.02 1.03 1.06 1.15 1.18 1.24 1.48 1.62 1.55 1.18 0.97 0.95 0.87 0.74 0.87 0.94 0.90 1.17 1.29 1.38 1.40 1.41 1.33 1.22 1.20 1.22 1.29 1.30 1.04 0.85 0.86 0.98 1.25 1.83 2.29 2.23 1.84 1.53 1.33 1.22 1.21
0.89 0.90 0.90 0.90 0.89 0.92 0.97 1.28 1.50 1.37 1.44 1.15 1.09 1.02 0.94 0.98 1.03 0.88 0.86 1.13 1.30 1.40 1.38 1.34 1.33 1.24 1.11 0.95 0.97 1.02 0.84 0.71 0.75 0.91 1.34 2.02 2.45 2.43 2.04 1.65 1.37 1.21 1.19
0.76 0.68 0.64 0.67 0.67 0.69 0.79 0.94 1.21 1.45 1.49 1.43 1.37 1.28 1.22 1.13 0.97 0.86 0.88 0.94 1.06 1.15 1.09 1.16 1.18 1.09 1.01 0.95 0.94 0.86 0.78 0.67 0.77 0.91 1.44 2.02 2.43 2.51 2.23 1.75 1.41 1.34 1.42
0.82 0.79 0.64 0.55 0.56 0.56 0.60 0.73 0.95 1.16 1.30 1.30 1.22 1.12 1.31 1.26 1.04 0.94 1.01 1.05 1.07 1.14 1.29 1.33 1.28 1.17 1.06 0.97 0.97 0.89 0.84 0.81 0.81 0.91 1.40 1.73 2.15 2.33 2.37 2.10 1.72 1.50 1.45
0.87 0.89 0.78 0.58 0.49 0.51 0.54 0.60 0.66 0.89 1.03 1.03 1.17 1.13 1.17 1.17 1.05 0.96 0.97 1.12 1.11 1.15 1.35 1.44 1.29 1.21 1.24 1.18 1.12 1.08 1.05 0.98 0.99 0.97 1.25 1.48 1.75 2.15 2.51 2.48 2.15 1.72 1.59
0.77 0.79 0.74 0.64 0.59 0.54 0.52 0.51 0.54 0.59 0.75 0.77 0.79 0.78 0.97 1.10 1.08 1.10 1.01 1.09 1.24 1.29 1.31 1.34 1.30 1.23 1.22 1.25 1.21 1.24 1.23 1.05 1.08 1.09 1.17 1.19 1.31 1.62 2.19 2.56 2.32 1.92 1.81
0.63 0.64 0.67 0.68 0.69 0.65 0.64 0.63 0.58 0.60 0.63 0.70 0.78 0.78 0.89 1.01 1.08 1.10 1.00 1.03 1.20 1.39 1.35 1.31 1.26 1.29 1.17 1.14 1.25 1.33 1.33 1.22 1.22 1.26 1.22 1.18 1.09 1.23 1.65 2.23 2.39 2.20 2.10
0.48 0.47 0.55 0.58 0.62 0.66 0.68 0.71 0.66 0.70 0.72 0.69 0.76 0.74 0.76 0.92 1.08 1.17 1.10 1.06 1.22 1.41 1.56 1.61 1.46 1.41 1.32 1.26 1.36 1.35 1.31 1.38 1.34 1.30 1.27 1.27 1.26 1.14 1.22 1.50 1.87 2.21 2.34
0.37 0.34 0.38 0.45 0.51 0.57 0.64 0.71 0.71 0.74 0.88 0.95 0.86 0.73 0.77 0.89 1.01 1.22 1.32 1.26 1.29 1.45 1.50 1.51 1.54 1.46 1.45 1.41 1.32 1.29 1.25 1.37 1.44 1.27 1.25 1.27 1.37 1.34 1.23 1.05 1.17 1.45 1.91
0.32 0.30 0.32 0.40 0.41 0.43 0.53 0.68 0.78 0.75 0.84 1.06 1.10 1.09 1.12 1.17 1.22 1.38 1.49 1.48 1.48 1.54 1.51 1.63 1.83 1.65 1.48 1.50 1.39 1.27 1.22 1.27 1.35 1.37 1.39 1.34 1.40 1.36 1.28 1.10 1.07 0.91 1.16
0.27 0.25 0.29 0.35 0.38 0.39 0.46 0.57 0.67 0.77 0.95 1.15 1.21 1.28 1.42 1.44 1.44 1.57 1.69 1.73 1.66 1.58 1.64 1.81 2.17 2.06 1.70 1.54 1.59 1.45 1.29 1.26 1.35 1.33 1.44 1.53 1.44 1.37 1.41 1.30 1.13 0.99 0.88
0.21 0.20 0.24 0.33 0.42 0.47 0.52 0.66 0.80 1.03 1.14 1.29 1.44 1.43 1.45 1.51 1.54 1.61 1.83 1.96 1.88 1.87 1.97 2.01 2.25 2.40 2.12 1.92 1.94 2.11 1.87 1.65 1.31 1.08 1.18 1.29 1.33 1.38 1.36 1.39 1.27 1.10 1.04
0.18 0.20 0.25 0.38 0.59 0.78 0.86 1.08 1.35 1.61 1.68 1.62 1.62 1.67 1.65 1.67 1.74 1.71 1.83 2.03 2.01 1.97 2.03 2.22 2.52 2.81 2.72 2.44 2.25 2.42 2.18 1.90 1.72 1.22 1.00 1.06 1.19 1.34 1.37 1.45 1.43 1.30 1.21
0.22 0.30 0.47 0.69 0.99 1.23 1.37 1.55 1.76 1.87 1.91 1.84 1.85 1.84 1.82 1.73 1.66 1.66 1.79 2.00 2.14 2.23 2.30 2.37 2.37 2.72 2.96 2.79 2.63 2.33 2.04 1.88 1.99 1.76 1.29 1.04 1.11 1.18 1.27 1.29 1.40 1.44 1.39
0.48 0.67 0.96 1.21 1.44 1.60 1.65 1.73 1.91 2.06 2.22 2.24 2.13 1.98 1.86 1.83 1.76 1.67 1.73 1.80 1.84 1.94 2.07 2.19 2.27 2.50 2.68 2.82 2.78 2.58 2.31 2.15 1.73 1.72 1.75 1.48 1.21 1.00 1.04 1.18 1.37 1.42 1.42
0.91 1.08 1.29 1.43 1.57 1.57 1.57 1.62 1.75 1.93 2.09 2.12 2.14 2.12 1.98 1.85 1.74 1.64 1.59 1.67 1.69 1.70 1.85 1.96 2.07 2.31 2.49 2.60 2.66 2.56 2.45 2.40 2.14 1.89 1.71 1.68 1.52 1.20 1.03 1.04 1.14 1.26 1.33